DW3400 Weather Reports


time (UTC)temp
F
wind
direction
speed
knots
gust
knots
rain 1hr
in
rain 24hr
in
rain mn
in
humidity
%
barometer
mb
20210723164503 69 276 0.0 0.9 0.00 0.00 0.00 68 1020.2
20210723164003 69 283 0.0 1.7 0.00 0.00 0.00 67 1020.2
20210723162502 69 342 0.9 1.7 0.00 0.00 0.00 68 1020.2
20210723162003 69 275 0.9 1.7 0.00 0.00 0.00 67 1020.2
20210723161502 69 294 0.0 1.7 0.00 0.00 0.00 67 1020.2
20210723161002 69 314 0.9 0.9 0.00 0.00 0.00 67 1020.2
20210723160502 69 288 0.9 2.6 0.00 0.00 0.00 67 1020.2
20210723160002 69 341 0.9 2.6 0.00 0.00 0.00 66 1020.2
20210723155504 70 327 0.9 2.6 0.00 0.00 0.00 66 1020.2
20210723154504 71 281 0.9 2.6 0.00 0.00 0.00 64 1020.2
20210723154002 71 120 0.9 1.7 0.00 0.00 0.00 63 1020.2
20210723153003 72 173 0.0 0.9 0.00 0.00 0.00 63 1020.2
20210723151502 72 257 0.9 1.7 0.00 0.00 0.00 63 1020.2
20210723150503 70 231 0.9 2.6 0.00 0.00 0.00 65 1020.2
20210723150002 70 214 1.7 2.6 0.00 0.00 0.00 64 1020.2
20210723145502 71 298 1.7 2.6 0.00 0.00 0.00 63 1020.2
20210723145003 71 272 0.0 0.9 0.00 0.00 0.00 65 1020.2
20210723144502 70 283 0.0 2.6 0.00 0.00 0.00 66 1020.2
20210723144003 70 268 0.9 2.6 0.00 0.00 0.00 66 1020.2
20210723143002 69 283 1.7 2.6 0.00 0.00 0.00 66 1020.2
20210723141502 70 300 1.7 2.6 0.00 0.00 0.00 65 1020.2
20210723141002 70 306 0.9 2.6 0.00 0.00 0.00 65 1020.2
20210723140502 70 267 2.6 4.3 0.00 0.00 0.00 64 1020.2
20210723140002 71 173 3.5 6.1 0.00 0.00 0.00 64 1020.2
20210723135003 72 198 2.6 7.0 0.00 0.00 0.00 62 1020.2
20210723134002 71 204 5.2 7.8 0.00 0.00 0.00 65 1020.2
20210723133502 71 178 1.7 5.2 0.00 0.00 0.00 64 1020.2
20210723133002 71 186 1.7 4.3 0.00 0.00 0.00 63 1020.2
20210723132003 71 257 0.9 2.6 0.00 0.00 0.00 63 1020.2
20210723131002 71 210 0.0 0.9 0.00 0.00 0.00 63 1020.2
20210723130502 70 195 0.9 0.9 0.00 0.00 0.00 64 1020.2
20210723130002 69 148 0.9 0.9 0.00 0.00 0.00 65 1020.2
20210723125502 69 276 0.9 1.7 0.00 0.00 0.00 65 1020.2
20210723125002 69 289 0.9 2.6 0.00 0.00 0.00 65 1020.2
20210723124002 70 304 0.0 0.9 0.00 0.00 0.00 66 1020.2
20210723123502 69 293 0.9 2.6 0.00 0.00 0.00 66 1020.2
20210723122503 70 285 1.7 6.1 0.00 0.00 0.00 65 1020.2
20210723121002 70 317 0.9 1.7 0.00 0.00 0.00 63 1020.2
20210723120502 70 51 0.9 1.7 0.00 0.00 0.00 65 1020.2
20210723120002 70 295 0.9 2.6 0.00 0.00 0.00 65 1020.2
20210723115502 70 247 0.0 2.6 0.00 0.00 0.00 64 1020.2
20210723115002 70 284 0.9 1.7 0.00 0.00 0.00 63 1020.2
20210723114503 70 267 0.9 2.6 0.00 0.00 0.00 65 1020.2
20210723114003 70 46 0.9 1.7 0.00 0.00 0.00 63 1020.2
20210723113503 70 285 0.9 2.6 0.00 0.00 0.00 63 1020.2
20210723112502 69 343 2.6 4.3 0.00 0.00 0.00 65 1020.2
20210723112003 69 304 1.7 5.2 0.00 0.00 0.00 65 1020.2
20210723111002 70 303 1.7 4.3 0.00 0.00 0.00 65 1020.2
20210723110503 70 345 1.7 5.2 0.00 0.00 0.00 67 1020.2
20210723110003 69 326 1.7 5.2 0.00 0.00 0.00 68 1020.2
20210723105002 68 321 2.6 4.3 0.00 0.00 0.00 68 1020.2
20210723104502 68 286 2.6 4.3 0.00 0.00 0.00 68 1020.2
20210723103503 68 295 2.6 4.3 0.00 0.00 0.00 68 1020.2
20210723102003 68 300 0.9 2.6 0.00 0.00 0.00 68 1020.2
20210723101503 68 290 1.7 2.6 0.00 0.00 0.00 68 1020.2
20210723101003 68 295 0.9 4.3 0.00 0.00 0.00 68 1020.2
20210723100503 68 269 0.9 2.6 0.00 0.00 0.00 68 1020.2
20210723100002 68 344 1.7 4.3 0.00 0.00 0.00 68 1020.2
20210723094502 68 324 0.9 2.6 0.00 0.00 0.00 68 1020.2
20210723094002 68 10 0.9 2.6 0.00 0.00 0.00 69 1020.2
20210723093002 68 300 1.7 2.6 0.00 0.00 0.00 68 1020.2
20210723092502 68 296 1.7 5.2 0.00 0.00 0.00 68 1020.2
20210723092002 68 286 2.6 7.0 0.00 0.00 0.00 69 1020.2
20210723091502 68 317 3.5 7.0 0.00 0.00 0.00 67 1020.2
20210723091002 69 307 1.7 5.2 0.00 0.00 0.00 68 1020.2
20210723090502 68 314 1.7 7.0 0.00 0.00 0.00 68 1020.2
20210723090003 68 337 2.6 5.2 0.00 0.00 0.00 69 1020.2
20210723085502 68 326 1.7 4.3 0.00 0.00 0.00 70 1020.2
20210723085002 67 297 4.3 6.1 0.00 0.00 0.00 70 1020.2
20210723084502 68 295 1.7 7.0 0.00 0.00 0.00 70 1020.2
20210723084002 67 303 4.3 6.1 0.00 0.00 0.00 71 1020.2
20210723083502 68 287 1.7 6.1 0.00 0.00 0.00 71 1020.2
20210723082503 67 294 2.6 5.2 0.00 0.00 0.00 71 1020.2
20210723081503 66 299 2.6 7.0 0.00 0.00 0.00 72 1020.2
20210723080502 66 312 1.7 5.2 0.00 0.00 0.00 74 1020.2
20210723075503 65 303 0.9 2.6 0.00 0.00 0.00 75 1020.2
20210723075002 65 285 1.7 6.1 0.00 0.00 0.00 75 1020.2
20210723074502 66 296 2.6 6.1 0.00 0.00 0.00 73 1020.2
20210723074002 66 307 1.7 5.2 0.00 0.00 0.00 74 1020.2
20210723073502 66 313 2.6 4.3 0.00 0.00 0.00 75 1020.2
20210723073003 66 307 2.6 4.3 0.00 0.00 0.00 74 1020.2
20210723072503 66 289 3.5 6.1 0.00 0.00 0.00 74 1020.2
20210723072003 65 317 1.7 4.3 0.00 0.00 0.00 77 1020.2
20210723071503 65 308 2.6 5.2 0.00 0.00 0.00 78 1020.2
20210723070502 64 314 2.6 6.1 0.00 0.00 0.00 79 1020.2
20210723065002 64 286 2.6 5.2 0.00 0.00 0.00 79 1020.2
20210723064503 64 301 2.6 5.2 0.00 0.00 0.00 79 1020.2
20210723064003 64 308 2.6 5.2 0.00 0.00 0.00 80 1020.2
20210723062502 63 296 1.7 4.3 0.00 0.00 0.00 81 1020.2
20210723062003 62 295 1.7 2.6 0.00 0.00 0.00 82 1020.2
20210723061502 62 298 2.6 4.3 0.00 0.00 0.00 82 1020.2
20210723060003 62 289 0.9 2.6 0.00 0.00 0.00 85 1020.2
20210723055504 61 289 0.9 2.6 0.00 0.00 0.00 84 1020.2
20210723055002 61 295 1.7 2.6 0.00 0.00 0.00 85 1020.2
20210723054502 61 320 1.7 2.6 0.00 0.00 0.00 85 1020.2
20210723053002 61 287 1.7 2.6 0.00 0.00 0.00 86 1020.2
20210723052003 60 290 0.9 2.6 0.00 0.00 0.00 87 1020.2
20210723051504 60 302 0.9 2.6 0.00 0.00 0.00 87 1020.2
20210723051002 60 290 0.9 2.6 0.00 0.00 0.00 87 1020.2
20210723050003 59 287 0.9 4.3 0.00 0.00 0.00 88 1020.2
20210723045503 59 296 1.7 2.6 0.00 0.00 0.00 88 1020.2
20210723044502 58 299 2.6 5.2 0.00 0.00 0.00 89 1020.2
20210723044002 58 283 1.7 2.6 0.00 0.00 0.00 89 1020.2
20210723043502 58 302 1.7 4.3 0.00 0.00 0.00 89 1020.2
20210723042503 58 295 0.9 2.6 0.00 0.00 0.00 90 1020.2
20210723042003 58 276 1.7 4.3 0.00 0.00 0.00 90 1020.2
20210723041002 57 291 0.0 0.9 0.00 0.00 0.00 90 1020.2
20210723040502 57 288 0.9 1.7 0.00 0.00 0.00 90 1020.2
20210723040003 57 307 0.9 2.6 0.00 0.00 0.00 90 1020.2
20210723035503 57 291 0.9 2.6 0.00 0.00 0.00 90 1020.2
20210723035003 57 289 0.9 1.7 0.00 0.00 0.00 90 1020.2
20210723034003 57 312 0.9 1.7 0.00 0.00 0.00 90 1020.2
20210723033003 57 303 0.9 2.6 0.00 0.00 0.00 89 1020.2
20210723032502 58 284 0.9 1.7 0.00 0.00 0.00 89 1020.2
20210723032003 58 289 0.9 2.6 0.00 0.00 0.00 89 1020.2
20210723031502 58 285 0.9 1.7 0.00 0.00 0.00 89 1020.2
20210723031003 58 286 0.9 0.9 0.00 0.00 0.00 89 1020.2
20210723030502 58 305 0.9 2.6 0.00 0.00 0.00 89 1020.2
20210723030003 58 260 0.9 2.6 0.00 0.00 0.00 89 1020.2
20210723025503 58 294 0.9 1.7 0.00 0.00 0.00 89 1020.2
20210723025002 58 305 0.9 2.6 0.00 0.00 0.00 89 1020.2
20210723024502 58 292 0.9 2.6 0.00 0.00 0.00 89 1020.2
20210723024002 58 291 0.9 2.6 0.00 0.00 0.00 89 1020.2
20210723023502 58 293 0.9 2.6 0.00 0.00 0.00 88 1020.2
20210723022503 59 289 0.9 2.6 0.00 0.00 0.00 88 1020.2
20210723022003 59 297 0.9 2.6 0.00 0.00 0.00 88 1020.2
20210723021502 59 298 0.9 2.6 0.00 0.00 0.00 88 1020.2
20210723020503 59 291 0.9 2.6 0.00 0.00 0.00 88 1020.2
20210723020002 59 289 0.9 2.6 0.00 0.00 0.00 88 1020.2
20210723015502 59 298 1.7 2.6 0.00 0.00 0.00 88 1020.2
20210723015004 59 298 1.7 4.3 0.00 0.00 0.00 88 1020.2
20210723014504 59 294 0.9 2.6 0.00 0.00 0.00 88 1020.2
20210723014003 59 295 0.9 4.3 0.00 0.00 0.00 88 1020.2
20210723013503 59 298 1.7 4.3 0.00 0.00 0.00 88 1020.2
20210723011502 59 290 0.9 2.6 0.00 0.00 0.00 87 1020.2
20210723011003 59 291 0.9 2.6 0.00 0.00 0.00 87 1020.2
20210723005503 60 294 1.7 2.6 0.00 0.00 0.00 87 1020.2
20210723005003 60 290 1.7 4.3 0.00 0.00 0.00 87 1020.2
20210723004503 59 293 1.7 2.6 0.00 0.00 0.00 87 1020.2
20210723004003 59 294 1.7 2.6 0.00 0.00 0.00 87 1020.2
20210723003503 60 310 1.7 2.6 0.00 0.00 0.00 87 1020.2
20210723003003 60 299 0.9 1.7 0.00 0.00 0.00 87 1020.2
20210723002003 59 258 0.9 2.6 0.00 0.00 0.00 87 1020.2
20210723001003 59 294 0.9 2.6 0.00 0.00 0.00 87 1020.2
20210723000002 59 297 0.9 2.6 0.00 0.00 0.00 87 1020.2
20210722235503 59 289 0.9 2.6 0.00 0.00 0.00 87 1020.2
20210722235003 60 281 0.9 2.6 0.00 0.00 0.00 86 1020.2
20210722234503 60 296 0.9 2.6 0.00 0.00 0.00 86 1020.2
20210722234003 60 295 1.7 2.6 0.00 0.00 0.00 85 1020.2
20210722233503 60 292 1.7 2.6 0.00 0.00 0.00 85 1020.2
20210722233003 60 278 0.9 2.6 0.00 0.00 0.00 85 1020.2
20210722232503 61 304 0.9 2.6 0.00 0.00 0.00 85 1020.2
20210722232003 61 310 1.7 2.6 0.00 0.00 0.00 84 1020.2
20210722231503 61 274 1.7 2.6 0.00 0.00 0.00 84 1020.2
20210722231003 61 303 1.7 4.3 0.00 0.00 0.00 84 1020.2
20210722230503 61 280 0.9 2.6 0.00 0.00 0.00 83 1020.2
20210722225502 61 300 0.9 2.6 0.00 0.00 0.00 83 1020.2
20210722225003 61 232 0.9 1.7 0.00 0.00 0.00 82 1020.2
20210722224504 62 208 0.0 2.6 0.00 0.00 0.00 82 1020.2
20210722224003 62 289 0.9 1.7 0.00 0.00 0.00 82 1020.2
20210722223503 62 255 0.0 2.6 0.00 0.00 0.00 82 1020.2
20210722223002 62 240 0.0 2.6 0.00 0.00 0.00 82 1020.2
20210722222503 62 249 0.9 2.6 0.00 0.00 0.00 81 1020.2
20210722222002 62 226 0.9 2.6 0.00 0.00 0.00 81 1020.2
20210722221003 62 223 0.9 2.6 0.00 0.00 0.00 81 1020.2
20210722220503 62 236 0.9 2.6 0.00 0.00 0.00 81 1020.2
20210722220003 62 217 0.9 1.7 0.00 0.00 0.00 81 1020.2
20210722215502 62 242 1.7 2.6 0.00 0.00 0.00 81 1020.2
20210722215003 62 232 0.9 2.6 0.00 0.00 0.00 81 1020.2
20210722214502 62 250 0.9 2.6 0.00 0.00 0.00 81 1020.2
20210722214003 62 209 0.9 1.7 0.00 0.00 0.00 81 1020.2
20210722213503 63 213 0.9 2.6 0.00 0.00 0.00 80 1020.2
20210722213004 63 230 0.9 2.6 0.00 0.00 0.00 80 1020.2
20210722212002 63 251 0.9 2.6 0.00 0.00 0.00 80 1020.2
20210722211502 63 281 1.7 2.6 0.00 0.00 0.00 80 1020.2
20210722210502 63 252 0.9 1.7 0.00 0.00 0.00 80 1020.2
20210722210002 63 219 0.9 1.7 0.00 0.00 0.00 80 1020.2
20210722205504 63 214 0.9 1.7 0.00 0.00 0.00 80 1020.2
20210722205003 63 246 0.0 0.9 0.00 0.00 0.00 80 1020.2
20210722204503 63 218 0.0 0.9 0.00 0.00 0.00 80 1020.2
20210722203503 63 140 0.0 0.9 0.00 0.00 0.00 80 1020.2
20210722203003 63 234 0.0 0.9 0.00 0.00 0.00 79 1020.2
20210722202503 64 241 0.0 2.6 0.00 0.00 0.00 80 1020.2
20210722202002 64 251 0.9 2.6 0.00 0.00 0.00 80 1020.2
20210722201503 64 265 0.0 2.6 0.00 0.00 0.00 80 1020.2
20210722201003 64 214 0.9 1.7 0.00 0.00 0.00 80 1020.2
20210722200503 64 267 0.0 0.9 0.00 0.00 0.00 79 1020.2
20210722195503 64 241 0.0 0.9 0.00 0.00 0.00 79 1020.2
20210722195003 64 123 0.0 0.9 0.00 0.00 0.00 79 1020.2
20210722193003 64 171 0.9 2.6 0.00 0.00 0.00 78 1020.2
20210722192502 64 234 0.9 2.6 0.00 0.00 0.00 77 1020.2
20210722191004 64 233 1.7 4.3 0.00 0.00 0.00 77 1020.2
20210722190502 65 261 0.0 2.6 0.00 0.00 0.00 77 1020.2
20210722185003 65 227 1.7 2.6 0.00 0.00 0.00 76 1020.2
20210722184003 65 258 1.7 6.1 0.00 0.00 0.00 76 1020.2
20210722183003 65 264 2.6 4.3 0.00 0.00 0.00 75 1020.2
20210722182003 65 229 2.6 4.3 0.00 0.00 0.00 75 1020.2
20210722181503 65 232 2.6 7.0 0.00 0.00 0.00 75 1020.2
20210722181003 65 237 1.7 5.2 0.00 0.00 0.00 74 1020.2
20210722180502 65 252 4.3 7.8 0.00 0.00 0.00 74 1020.2
20210722180003 65 257 2.6 7.0 0.00 0.00 0.00 74 1020.2
20210722175502 65 235 1.7 6.1 0.00 0.00 0.00 74 1020.2
20210722175002 65 245 1.7 4.3 0.00 0.00 0.00 73 1020.2
20210722174003 65 267 2.6 7.8 0.00 0.00 0.00 72 1020.2
20210722173503 66 247 3.5 8.7 0.00 0.00 0.00 71 1020.2
20210722173003 66 139 0.9 2.6 0.00 0.00 0.00 71 1020.2
20210722172503 66 237 1.7 4.3 0.00 0.00 0.00 71 1020.2
20210722172003 66 356 1.7 5.2 0.00 0.00 0.00 71 1020.2
20210722171503 66 252 1.7 6.1 0.00 0.00 0.00 70 1020.2
20210722171003 66 227 2.6 7.8 0.00 0.00 0.00 70 1020.2
20210722170503 66 233 2.6 5.2 0.00 0.00 0.00 69 1020.2
20210722170003 66 257 1.7 2.6 0.00 0.00 0.00 69 1020.2
20210722165002 66 244 2.6 5.2 0.00 0.00 0.00 69 1020.2